Time,TemperatureF,DewpointF,PressureIn,WindDirection,WindDirectionDegrees,WindSpeedMPH,WindSpeedGustMPH,Humidity,HourlyPrecipIn,Conditions,Clouds,dailyrainin,SoftwareType,DateUTC
2013-09-01 00:01:00,70.0,67.2,29.90,NE,45,1.2,0.0,91,0.00,BKN,SKC,0.00,WeatherDisplay:10.37,2013-09-01 04:01:00,
2013-09-01 00:06:00,69.8,67.1,29.90,North,0,0.0,0.0,91,0.00,BKN,SKC,0.00,WeatherDisplay:10.37,2013-09-01 04:06:00,
2013-09-01 00:12:00,69.6,67.2,29.90,North,0,0.0,0.0,92,0.00,BKN,SKC,0.00,WeatherDisplay:10.37,2013-09-01 04:12:00,
2013-09-01 00:17:00,69.4,67.0,29.89,North,0,0.0,0.0,92,0.00,BKN,SKC,0.00,WeatherDisplay:10.37,2013-09-01 04:17:00,
2013-09-01 00:22:00,69.3,66.8,29.90,North,0,0.0,0.0,92,0.00,BKN,SKC,0.00,WeatherDisplay:10.37,2013-09-01 04:22:00,
2013-09-01 00:27:00,69.1,67.0,29.90,North,0,0.0,0.0,93,0.00,BKN,SKC,0.00,WeatherDisplay:10.37,2013-09-01 04:27:00,
2013-09-01 00:32:00,68.9,66.8,29.90,North,0,0.0,0.0,93,0.00,BKN,SKC,0.00,WeatherDisplay:10.37,2013-09-01 04:32:00,
2013-09-01 00:37:00,68.7,66.6,29.90,North,0,0.0,0.0,93,0.00,BKN,SKC,0.00,WeatherDisplay:10.37,2013-09-01 04:37:00,
2013-09-01 00:42:00,68.5,66.4,29.90,North,0,0.0,0.0,93,0.00,BKN,SKC,0.00,WeatherDisplay:10.37,2013-09-01 04:42:00,
2013-09-01 00:47:00,68.4,66.3,29.89,North,0,0.0,0.0,93,0.00,BKN,SKC,0.00,WeatherDisplay:10.37,2013-09-01 04:47:00,
2013-09-01 00:52:00,68.2,66.1,29.89,North,0,0.0,0.0,93,0.00,BKN,SKC,0.00,WeatherDisplay:10.37,2013-09-01 04:52:00,
2013-09-01 00:57:00,68.2,66.1,29.89,North,0,0.0,0.0,93,0.00,BKN,SKC,0.00,WeatherDisplay:10.37,2013-09-01 04:57:00,
2013-09-01 01:02:00,68.0,65.9,29.89,North,0,0.0,0.0,93,0.00,BKN,SKC,0.00,WeatherDisplay:10.37,2013-09-01 05:02:00,
2013-09-01 01:07:00,67.8,66.0,29.89,North,0,0.0,0.0,94,0.00,BKN,SKC,0.00,WeatherDisplay:10.37,2013-09-01 05:07:00,
2013-09-01 01:12:00,67.8,66.0,29.89,North,0,0.0,0.0,94,0.00,SCT,SKC,0.00,WeatherDisplay:10.37,2013-09-01 05:12:00,
2013-09-01 01:17:00,67.6,66.2,29.89,North,0,0.0,0.0,95,0.00,SCT,SKC,0.00,WeatherDisplay:10.37,2013-09-01 05:17:00,
2013-09-01 01:22:00,67.6,66.2,29.88,North,0,0.0,0.0,95,0.00,SCT,SKC,0.00,WeatherDisplay:10.37,2013-09-01 05:22:00,
2013-09-01 01:27:00,67.5,66.0,29.89,North,0,0.0,0.0,95,0.00,SCT,SKC,0.00,WeatherDisplay:10.37,2013-09-01 05:27:00,
2013-09-01 01:32:00,67.3,65.8,29.89,North,0,0.0,0.0,95,0.00,SCT,SKC,0.00,WeatherDisplay:10.37,2013-09-01 05:32:00,
2013-09-01 01:37:00,67.5,66.0,29.89,North,0,1.2,1.2,95,0.00,SCT,SKC,0.00,WeatherDisplay:10.37,2013-09-01 05:37:00,
2013-09-01 01:42:00,67.6,66.2,29.89,North,0,2.3,2.3,95,0.00,SCT,SKC,0.00,WeatherDisplay:10.37,2013-09-01 05:42:00,
2013-09-01 01:47:00,67.8,66.6,29.89,North,0,1.2,0.0,96,0.00,SCT,SKC,0.00,WeatherDisplay:10.37,2013-09-01 05:47:00,
2013-09-01 01:52:00,67.8,66.6,29.88,North,0,1.2,1.2,96,0.00,SCT,SKC,0.00,WeatherDisplay:10.37,2013-09-01 05:52:00,
2013-09-01 01:57:00,68.0,66.5,29.88,North,0,2.3,2.3,95,0.00,SCT,SKC,0.00,WeatherDisplay:10.37,2013-09-01 05:57:00,
2013-09-01 02:02:00,67.8,66.9,29.88,North,0,1.2,1.6,97,0.00,SCT,SKC,0.00,WeatherDisplay:10.37,2013-09-01 06:02:00,
2013-09-01 02:07:00,67.8,66.9,29.88,North,0,1.6,1.6,97,0.00,SCT,SKC,0.00,WeatherDisplay:10.37,2013-09-01 06:07:00,
2013-09-01 02:12:00,67.8,66.9,29.89,North,0,1.2,1.2,97,0.00,FEW,SKC,0.00,WeatherDisplay:10.37,2013-09-01 06:12:00,
2013-09-01 02:17:00,67.8,66.9,29.89,North,0,1.6,1.6,97,0.00,FEW,SKC,0.00,WeatherDisplay:10.37,2013-09-01 06:17:00,
2013-09-01 02:22:00,67.6,66.8,29.89,North,0,0.0,0.0,97,0.00,FEW,SKC,0.00,WeatherDisplay:10.37,2013-09-01 06:22:00,
2013-09-01 02:27:00,67.6,66.8,29.89,North,0,0.0,0.0,97,0.00,FEW,SKC,0.00,WeatherDisplay:10.37,2013-09-01 06:27:00,
2013-09-01 02:32:00,67.6,66.8,29.89,North,0,0.0,0.0,97,0.00,FEW,SKC,0.00,WeatherDisplay:10.37,2013-09-01 06:32:00,
2013-09-01 02:37:00,67.5,66.6,29.89,North,0,0.0,0.0,97,0.00,FEW,SKC,0.00,WeatherDisplay:10.37,2013-09-01 06:37:00,
2013-09-01 02:42:00,67.3,66.4,29.89,North,0,0.0,0.0,97,0.00,FEW,SKC,0.00,WeatherDisplay:10.37,2013-09-01 06:42:00,
2013-09-01 02:47:00,67.3,66.4,29.89,North,0,0.0,0.0,97,0.00,FEW,SKC,0.00,WeatherDisplay:10.37,2013-09-01 06:47:00,
2013-09-01 02:52:00,67.3,66.4,29.89,North,0,0.0,0.0,97,0.00,FEW,SKC,0.00,WeatherDisplay:10.37,2013-09-01 06:52:00,
2013-09-01 02:57:00,67.1,66.2,29.88,North,0,0.0,0.0,97,0.00,FEW,SKC,0.00,WeatherDisplay:10.37,2013-09-01 06:57:00,
2013-09-01 03:02:00,67.1,66.2,29.89,North,0,0.0,0.0,97,0.00,FEW,SKC,0.00,WeatherDisplay:10.37,2013-09-01 07:02:00,
2013-09-01 03:07:00,67.1,66.2,29.88,North,0,0.0,0.0,97,0.00,FEW,SKC,0.00,WeatherDisplay:10.37,2013-09-01 07:07:00,
2013-09-01 03:12:00,67.1,66.2,29.88,North,0,0.0,0.0,97,0.00,SCT,SKC,0.00,WeatherDisplay:10.37,2013-09-01 07:12:00,
2013-09-01 03:17:00,66.9,66.0,29.89,North,0,0.0,0.0,97,0.00,SCT,SKC,0.00,WeatherDisplay:10.37,2013-09-01 07:17:00,
2013-09-01 03:22:00,67.1,66.2,29.89,North,0,0.0,0.0,97,0.00,SCT,SKC,0.00,WeatherDisplay:10.37,2013-09-01 07:22:00,
2013-09-01 03:27:00,66.9,66.0,29.89,North,0,1.2,0.0,97,0.00,SCT,SKC,0.00,WeatherDisplay:10.37,2013-09-01 07:27:00,
2013-09-01 03:32:00,66.9,66.0,29.88,North,0,0.0,0.0,97,0.00,SCT,SKC,0.00,WeatherDisplay:10.37,2013-09-01 07:32:00,
2013-09-01 03:37:00,66.9,66.0,29.88,North,0,0.0,0.0,97,0.00,SCT,SKC,0.00,WeatherDisplay:10.37,2013-09-01 07:37:00,
2013-09-01 03:42:00,66.7,65.9,29.88,North,0,0.0,0.0,97,0.00,SCT,SKC,0.00,WeatherDisplay:10.37,2013-09-01 07:42:00,
2013-09-01 03:47:00,66.7,65.9,29.88,North,0,0.0,0.0,97,0.00,SCT,SKC,0.00,WeatherDisplay:10.37,2013-09-01 07:47:00,
2013-09-01 03:52:00,66.7,65.9,29.88,North,0,3.5,3.5,97,0.00,SCT,SKC,0.00,WeatherDisplay:10.37,2013-09-01 07:52:00,
2013-09-01 03:57:00,66.7,65.9,29.89,North,0,1.2,1.2,97,0.00,SCT,SKC,0.00,WeatherDisplay:10.37,2013-09-01 07:57:00,
2013-09-01 04:02:00,66.7,65.9,29.90,NE,45,1.2,0.0,97,0.00,BKN,SKC,0.00,WeatherDisplay:10.37,2013-09-01 08:02:00,
2013-09-01 04:07:00,66.7,65.9,29.90,NE,45,0.0,0.0,97,0.00,BKN,SKC,0.00,WeatherDisplay:10.37,2013-09-01 08:07:00,
2013-09-01 04:12:00,66.7,65.9,29.90,NE,45,1.2,0.0,97,0.00,OVC,SKC,0.00,WeatherDisplay:10.37,2013-09-01 08:12:00,
2013-09-01 04:17:00,66.7,66.2,29.90,NE,45,0.0,0.0,98,0.00,OVC,SKC,0.00,WeatherDisplay:10.37,2013-09-01 08:17:00,
2013-09-01 04:22:00,66.7,66.2,29.90,East,90,1.2,0.0,98,0.00,OVC,SKC,0.00,WeatherDisplay:10.37,2013-09-01 08:22:00,
2013-09-01 04:27:00,66.7,66.2,29.90,SE,135,0.0,0.0,98,0.00,OVC,SKC,0.00,WeatherDisplay:10.37,2013-09-01 08:27:00,
2013-09-01 04:32:00,66.7,66.2,29.90,NE,45,0.0,0.0,98,0.00,OVC,SKC,0.00,WeatherDisplay:10.37,2013-09-01 08:32:00,
2013-09-01 04:37:00,66.7,66.2,29.90,East,90,0.0,0.0,98,0.00,OVC,SKC,0.00,WeatherDisplay:10.37,2013-09-01 08:37:00,
2013-09-01 04:42:00,66.7,66.2,29.90,East,90,0.0,0.0,98,0.00,OVC,SKC,0.00,WeatherDisplay:10.37,2013-09-01 08:42:00,
2013-09-01 04:47:00,66.7,66.2,29.91,East,90,1.2,0.0,98,0.00,OVC,SKC,0.00,WeatherDisplay:10.37,2013-09-01 08:47:00,
2013-09-01 04:52:00,66.7,66.2,29.91,East,90,1.2,0.0,98,0.00,OVC,SKC,0.00,WeatherDisplay:10.37,2013-09-01 08:52:00,
2013-09-01 04:57:00,66.9,66.3,29.90,NE,45,1.2,0.0,98,0.00,OVC,SKC,0.00,WeatherDisplay:10.37,2013-09-01 08:57:00,
2013-09-01 05:02:00,66.9,66.3,29.90,SW,225,1.2,0.0,98,0.00,OVC,SKC,0.00,WeatherDisplay:10.37,2013-09-01 09:02:00,
2013-09-01 05:07:00,66.9,66.3,29.91,SW,225,1.2,0.0,98,0.00,OVC,SKC,0.00,WeatherDisplay:10.37,2013-09-01 09:07:00,
2013-09-01 05:12:00,66.9,66.3,29.91,East,90,1.2,0.0,98,0.00,OVC,SKC,0.00,WeatherDisplay:10.37,2013-09-01 09:12:00,
2013-09-01 05:17:00,67.1,66.5,29.91,SW,225,1.2,0.0,98,0.00,OVC,SKC,0.00,WeatherDisplay:10.37,2013-09-01 09:17:00,
2013-09-01 05:22:00,67.1,66.5,29.91,East,90,1.2,1.2,98,0.00,OVC,SKC,0.00,WeatherDisplay:10.37,2013-09-01 09:22:00,
2013-09-01 05:27:00,67.1,66.5,29.91,SE,135,0.0,0.7,98,0.00,OVC,SKC,0.00,WeatherDisplay:10.37,2013-09-01 09:27:00,
2013-09-01 05:32:00,67.1,66.5,29.91,SE,135,1.2,0.0,98,0.00,OVC,SKC,0.00,WeatherDisplay:10.37,2013-09-01 09:32:00,
2013-09-01 05:37:00,67.1,66.5,29.91,East,90,1.2,0.0,98,0.00,OVC,SKC,0.00,WeatherDisplay:10.37,2013-09-01 09:37:00,
2013-09-01 05:43:00,67.1,66.5,29.91,East,90,1.2,0.0,98,0.00,OVC,SKC,0.00,WeatherDisplay:10.37,2013-09-01 09:43:00,
2013-09-01 05:48:00,67.1,66.5,29.91,North,0,1.2,1.2,98,0.00,OVC,SKC,0.00,WeatherDisplay:10.37,2013-09-01 09:48:00,
2013-09-01 05:53:00,67.1,66.5,29.91,East,90,3.5,3.5,98,0.00,OVC,SKC,0.00,WeatherDisplay:10.37,2013-09-01 09:53:00,
2013-09-01 05:58:00,67.1,66.5,29.91,NE,45,3.5,0.0,98,0.00,OVC,SKC,0.00,WeatherDisplay:10.37,2013-09-01 09:58:00,
2013-09-01 06:03:00,67.3,66.7,29.91,NE,45,1.2,0.0,98,0.00,OVC,SKC,0.00,WeatherDisplay:10.37,2013-09-01 10:03:00,
2013-09-01 06:08:00,67.3,66.7,29.91,East,90,2.3,0.0,98,0.00,OVC,SKC,0.00,WeatherDisplay:10.37,2013-09-01 10:08:00,
2013-09-01 06:13:00,67.3,66.7,29.91,East,90,1.2,1.2,98,0.00,OVC,SKC,0.00,WeatherDisplay:10.37,2013-09-01 10:13:00,
2013-09-01 06:18:00,67.3,66.7,29.91,SE,135,0.0,0.0,98,0.00,OVC,SKC,0.00,WeatherDisplay:10.37,2013-09-01 10:18:00,
2013-09-01 06:23:00,67.5,66.6,29.91,East,90,1.2,0.0,97,0.00,OVC,SKC,0.00,WeatherDisplay:10.37,2013-09-01 10:23:00,
2013-09-01 06:28:00,67.6,66.8,29.91,NE,45,2.3,0.0,97,0.00,OVC,SKC,0.00,WeatherDisplay:10.37,2013-09-01 10:28:00,
2013-09-01 06:33:00,67.6,66.8,29.91,NE,45,3.5,3.5,97,0.00,OVC,SKC,0.00,WeatherDisplay:10.37,2013-09-01 10:33:00,
2013-09-01 06:38:00,67.6,66.8,29.91,North,0,1.2,0.0,97,0.00,OVC,SKC,0.00,WeatherDisplay:10.37,2013-09-01 10:38:00,
2013-09-01 06:43:00,67.8,66.9,29.91,SE,135,1.2,1.6,97,0.00,OVC,SKC,0.00,WeatherDisplay:10.37,2013-09-01 10:43:00,
2013-09-01 06:48:00,67.8,66.9,29.91,East,90,1.2,0.0,97,0.00,OVC,SKC,0.00,WeatherDisplay:10.37,2013-09-01 10:48:00,
2013-09-01 06:53:00,67.8,66.9,29.91,East,90,1.2,0.0,97,0.00,OVC,SKC,0.00,WeatherDisplay:10.37,2013-09-01 10:53:00,
2013-09-01 06:58:00,68.0,66.8,29.91,East,90,1.2,0.0,96,0.00,OVC,SKC,0.00,WeatherDisplay:10.37,2013-09-01 10:58:00,
2013-09-01 07:03:00,68.0,66.8,29.90,East,90,1.2,0.0,96,0.00,OVC,SKC,0.00,WeatherDisplay:10.37,2013-09-01 11:03:00,
2013-09-01 07:08:00,68.2,67.0,29.91,NE,45,1.2,0.0,96,0.00,OVC,SKC,0.00,WeatherDisplay:10.37,2013-09-01 11:08:00,
2013-09-01 07:13:00,68.2,67.0,29.91,East,90,1.2,0.0,96,0.00,BKN,SKC,0.00,WeatherDisplay:10.37,2013-09-01 11:13:00,
2013-09-01 07:18:00,68.4,67.2,29.91,NE,45,1.2,0.0,96,0.00,BKN,SKC,0.00,WeatherDisplay:10.37,2013-09-01 11:18:00,
2013-09-01 07:23:00,68.4,67.2,29.91,East,90,0.0,0.7,96,0.00,BKN,SKC,0.00,WeatherDisplay:10.37,2013-09-01 11:23:00,
2013-09-01 07:28:00,68.5,67.4,29.91,NE,45,1.2,0.0,96,0.00,BKN,SKC,0.00,WeatherDisplay:10.37,2013-09-01 11:28:00,
2013-09-01 07:33:00,68.5,67.4,29.90,NE,45,0.0,0.0,96,0.00,BKN,SKC,0.00,WeatherDisplay:10.37,2013-09-01 11:33:00,
2013-09-01 07:38:00,68.7,67.2,29.91,NE,45,0.0,0.0,95,0.00,BKN,SKC,0.00,WeatherDisplay:10.37,2013-09-01 11:38:00,
2013-09-01 07:43:00,68.9,67.4,29.91,East,90,0.0,0.7,95,0.00,BKN,SKC,0.00,WeatherDisplay:10.37,2013-09-01 11:43:00,
2013-09-01 07:48:00,68.9,67.4,29.91,NE,45,1.2,1.2,95,0.00,BKN,SKC,0.00,WeatherDisplay:10.37,2013-09-01 11:48:00,
2013-09-01 07:53:00,69.1,67.6,29.91,NE,45,0.0,0.0,95,0.00,BKN,SKC,0.00,WeatherDisplay:10.37,2013-09-01 11:53:00,
2013-09-01 07:58:00,69.4,67.9,29.91,East,90,1.2,0.0,95,0.00,BKN,SKC,0.00,WeatherDisplay:10.37,2013-09-01 11:58:00,
2013-09-01 08:03:00,69.4,67.6,29.91,North,0,0.0,0.0,94,0.00,BKN,SKC,0.00,WeatherDisplay:10.37,2013-09-01 12:03:00,
2013-09-01 08:08:00,69.6,67.8,29.91,NE,45,1.2,0.0,94,0.00,BKN,SKC,0.00,WeatherDisplay:10.37,2013-09-01 12:08:00,
2013-09-01 08:13:00,70.0,67.9,29.91,North,0,0.0,0.0,93,0.00,BKN,SKC,0.00,WeatherDisplay:10.37,2013-09-01 12:13:00,
2013-09-01 08:18:00,70.3,68.2,29.91,NE,45,2.3,2.3,93,0.00,BKN,SKC,0.00,WeatherDisplay:10.37,2013-09-01 12:18:00,
2013-09-01 08:23:00,70.9,68.4,29.91,East,90,2.3,2.3,92,0.00,BKN,SKC,0.00,WeatherDisplay:10.37,2013-09-01 12:23:00,
2013-09-01 08:28:00,71.1,68.6,29.91,SE,135,1.2,0.0,92,0.00,BKN,SKC,0.00,WeatherDisplay:10.37,2013-09-01 12:28:00,
2013-09-01 08:33:00,71.2,68.2,29.91,NE,45,2.3,2.3,90,0.00,BKN,SKC,0.00,WeatherDisplay:10.37,2013-09-01 12:33:00,
2013-09-01 08:38:00,71.4,68.0,29.91,East,90,3.5,3.5,89,0.00,BKN,SKC,0.00,WeatherDisplay:10.37,2013-09-01 12:38:00,
2013-09-01 08:43:00,71.4,67.7,29.91,East,90,2.3,0.0,88,0.00,BKN,SKC,0.00,WeatherDisplay:10.37,2013-09-01 12:43:00,
2013-09-01 08:48:00,71.6,67.5,29.91,SE,135,2.3,2.3,87,0.00,BKN,SKC,0.00,WeatherDisplay:10.37,2013-09-01 12:48:00,
2013-09-01 08:53:00,71.8,67.4,29.91,SE,135,2.3,2.3,86,0.00,BKN,SKC,0.00,WeatherDisplay:10.37,2013-09-01 12:53:00,
2013-09-01 08:58:00,72.1,67.4,29.91,SE,135,3.5,0.0,85,0.00,BKN,SKC,0.00,WeatherDisplay:10.37,2013-09-01 12:58:00,
2013-09-01 09:03:00,72.5,67.7,29.91,South,180,2.3,2.3,85,0.00,BKN,SKC,0.00,WeatherDisplay:10.37,2013-09-01 13:03:00,
2013-09-01 09:08:00,73.0,68.3,29.91,NE,45,2.3,2.3,85,0.00,BKN,SKC,0.00,WeatherDisplay:10.37,2013-09-01 13:08:00,
2013-09-01 09:13:00,73.4,68.6,29.91,East,90,3.5,3.5,85,0.00,SCT,SKC,0.00,WeatherDisplay:10.37,2013-09-01 13:13:00,
2013-09-01 09:18:00,74.1,68.6,29.91,NE,45,3.5,0.0,83,0.00,SCT,SKC,0.00,WeatherDisplay:10.37,2013-09-01 13:18:00,
2013-09-01 09:23:00,74.3,68.4,29.92,SE,135,2.3,2.3,82,0.00,SCT,SKC,0.00,WeatherDisplay:10.37,2013-09-01 13:23:00,
2013-09-01 09:28:00,74.5,68.6,29.92,North,0,3.5,3.5,82,0.00,SCT,SKC,0.00,WeatherDisplay:10.37,2013-09-01 13:28:00,
2013-09-01 09:33:00,74.7,68.4,29.92,East,90,1.2,1.2,81,0.00,SCT,SKC,0.00,WeatherDisplay:10.37,2013-09-01 13:33:00,
2013-09-01 09:38:00,74.7,68.4,29.92,NE,45,2.3,2.3,81,0.00,SCT,SKC,0.00,WeatherDisplay:10.37,2013-09-01 13:38:00,
2013-09-01 09:43:00,75.0,68.8,29.91,SE,135,1.2,1.6,81,0.00,SCT,SKC,0.00,WeatherDisplay:10.37,2013-09-01 13:43:00,
2013-09-01 09:48:00,75.4,68.4,29.91,NE,45,3.5,3.5,79,0.00,SCT,SKC,0.00,WeatherDisplay:10.37,2013-09-01 13:48:00,
2013-09-01 09:53:00,75.6,68.2,29.91,East,90,4.6,4.6,78,0.00,SCT,SKC,0.00,WeatherDisplay:10.37,2013-09-01 13:53:00,
2013-09-01 09:58:00,75.9,68.6,29.91,NE,45,3.5,3.5,78,0.00,SCT,SKC,0.00,WeatherDisplay:10.37,2013-09-01 13:58:00,
2013-09-01 10:03:00,76.3,68.5,29.91,East,90,3.5,3.5,77,0.00,SCT,SKC,0.00,WeatherDisplay:10.37,2013-09-01 14:03:00,
2013-09-01 10:08:00,76.6,68.9,29.91,NE,45,2.3,2.3,77,0.00,SCT,SKC,0.00,WeatherDisplay:10.37,2013-09-01 14:08:00,
2013-09-01 10:13:00,76.8,68.7,29.91,East,90,4.6,4.6,76,0.00,SCT,SKC,0.00,WeatherDisplay:10.37,2013-09-01 14:13:00,
2013-09-01 10:18:00,77.0,68.5,29.91,NE,45,3.5,3.5,75,0.00,SCT,SKC,0.00,WeatherDisplay:10.37,2013-09-01 14:18:00,
2013-09-01 10:23:00,77.2,68.6,29.91,NE,45,2.3,2.3,75,0.00,SCT,SKC,0.00,WeatherDisplay:10.37,2013-09-01 14:23:00,
2013-09-01 10:28:00,77.4,68.8,29.91,SE,135,3.5,3.5,75,0.00,SCT,SKC,0.00,WeatherDisplay:10.37,2013-09-01 14:28:00,
2013-09-01 10:33:00,77.7,68.8,29.91,East,90,2.3,2.3,74,0.00,SCT,SKC,0.00,WeatherDisplay:10.37,2013-09-01 14:33:00,
2013-09-01 10:38:00,78.4,69.5,29.90,East,90,3.1,3.1,74,0.00,SCT,SKC,0.00,WeatherDisplay:10.37,2013-09-01 14:38:00,
2013-09-01 10:43:00,78.8,69.4,29.90,South,180,3.5,3.5,73,0.00,SCT,SKC,0.00,WeatherDisplay:10.37,2013-09-01 14:43:00,
2013-09-01 10:48:00,79.2,69.8,29.90,NE,45,2.3,2.3,73,0.00,SCT,SKC,0.00,WeatherDisplay:10.37,2013-09-01 14:48:00,
2013-09-01 10:53:00,79.5,69.7,29.90,NE,45,2.3,2.3,72,0.00,SCT,SKC,0.00,WeatherDisplay:10.37,2013-09-01 14:53:00,
2013-09-01 10:59:00,79.5,69.7,29.90,East,90,2.3,0.0,72,0.00,SCT,SKC,0.00,WeatherDisplay:10.37,2013-09-01 14:59:00,
2013-09-01 11:04:00,79.3,68.7,29.90,SE,135,1.2,1.2,70,0.00,SCT,SKC,0.00,WeatherDisplay:10.37,2013-09-01 15:04:00,
2013-09-01 11:09:00,79.3,69.5,29.90,East,90,3.5,3.5,72,0.00,SCT,SKC,0.00,WeatherDisplay:10.37,2013-09-01 15:09:00,
2013-09-01 11:14:00,79.9,69.2,29.90,East,90,3.5,3.5,70,0.00,SCT,SKC,0.00,WeatherDisplay:10.37,2013-09-01 15:14:00,
2013-09-01 11:19:00,80.2,70.0,29.89,NE,45,1.2,1.2,71,0.00,SCT,SKC,0.00,WeatherDisplay:10.37,2013-09-01 15:19:00,
2013-09-01 11:24:00,79.9,69.6,29.90,East,90,2.3,2.3,71,0.00,SCT,SKC,0.00,WeatherDisplay:10.37,2013-09-01 15:24:00,
2013-09-01 11:29:00,78.8,69.0,29.90,NE,45,3.5,3.5,72,0.00,SCT,SKC,0.00,WeatherDisplay:10.37,2013-09-01 15:29:00,
2013-09-01 11:34:00,79.9,70.0,29.89,NE,45,3.5,3.5,72,0.00,SCT,SKC,0.00,WeatherDisplay:10.37,2013-09-01 15:34:00,
2013-09-01 11:39:00,80.6,69.9,29.89,SE,135,2.3,2.3,70,0.00,SCT,SKC,0.00,WeatherDisplay:10.37,2013-09-01 15:39:00,
2013-09-01 11:44:00,80.4,69.7,29.89,East,90,3.5,3.5,70,0.00,SCT,SKC,0.00,WeatherDisplay:10.37,2013-09-01 15:44:00,
2013-09-01 11:49:00,80.4,68.5,29.89,NE,45,2.3,0.0,67,0.00,SCT,SKC,0.00,WeatherDisplay:10.37,2013-09-01 15:49:00,
2013-09-01 11:54:00,80.8,69.2,29.89,SE,135,1.2,0.0,68,0.00,SCT,SKC,0.00,WeatherDisplay:10.37,2013-09-01 15:54:00,
2013-09-01 11:59:00,80.8,69.2,29.89,East,90,1.2,0.0,68,0.00,SCT,SKC,0.00,WeatherDisplay:10.37,2013-09-01 15:59:00,
2013-09-01 12:04:00,81.1,70.0,29.88,NE,45,2.3,2.3,69,0.00,SCT,SKC,0.00,WeatherDisplay:10.37,2013-09-01 16:04:00,
2013-09-01 12:09:00,81.9,70.3,29.88,NE,45,2.3,2.3,68,0.00,SCT,SKC,0.00,WeatherDisplay:10.37,2013-09-01 16:09:00,
2013-09-01 13:30:00,79.7,69.9,29.88,NW,315,3.5,3.5,72,0.00,BKN,SKC,0.00,WeatherDisplay:10.37,2013-09-01 17:30:00,
2013-09-01 13:35:00,79.5,70.1,29.88,North,0,1.2,0.0,73,0.00,BKN,SKC,0.00,WeatherDisplay:10.37,2013-09-01 17:35:00,
2013-09-01 13:40:00,79.5,70.1,29.88,NE,45,1.2,0.0,73,0.00,BKN,SKC,0.00,WeatherDisplay:10.37,2013-09-01 17:40:00,
2013-09-01 13:46:00,80.2,70.8,29.87,East,90,0.0,0.0,73,0.00,BKN,SKC,0.00,WeatherDisplay:10.37,2013-09-01 17:46:00,
2013-09-01 13:51:00,83.7,71.5,29.87,NE,45,2.3,2.3,67,0.00,BKN,SKC,0.00,WeatherDisplay:10.37,2013-09-01 17:51:00,
2013-09-01 13:56:00,84.9,71.4,29.86,North,0,2.3,2.3,64,0.00,BKN,SKC,0.00,WeatherDisplay:10.37,2013-09-01 17:56:00,
2013-09-01 14:01:00,86.4,70.8,29.86,NE,45,3.5,3.5,60,0.00,BKN,SKC,0.00,WeatherDisplay:10.37,2013-09-01 18:01:00,
2013-09-01 14:06:00,86.0,69.5,29.86,SE,135,2.3,2.3,58,0.00,BKN,SKC,0.00,WeatherDisplay:10.37,2013-09-01 18:06:00,
2013-09-01 14:11:00,85.5,70.0,29.86,NE,45,1.2,0.0,60,0.00,BKN,SKC,0.00,WeatherDisplay:10.37,2013-09-01 18:11:00,
2013-09-01 14:16:00,87.3,70.7,29.86,East,90,2.3,2.3,58,0.00,BKN,SKC,0.00,WeatherDisplay:10.37,2013-09-01 18:16:00,
2013-09-01 14:21:00,88.3,70.1,29.86,North,0,2.3,2.3,55,0.00,BKN,SKC,0.00,WeatherDisplay:10.37,2013-09-01 18:21:00,
2013-09-01 14:26:00,86.0,69.0,29.86,North,0,3.5,3.5,57,0.00,BKN,SKC,0.00,WeatherDisplay:10.37,2013-09-01 18:26:00,
2013-09-01 14:31:00,83.7,69.7,29.85,North,0,4.6,4.6,63,0.00,BKN,SKC,0.00,WeatherDisplay:10.37,2013-09-01 18:31:00,
2013-09-01 14:36:00,81.7,69.7,29.85,North,0,5.8,5.8,67,0.00,BKN,SKC,0.00,WeatherDisplay:10.37,2013-09-01 18:36:00,
2013-09-01 14:41:00,81.3,70.2,29.85,North,0,3.5,3.5,69,0.00,BKN,SKC,0.00,WeatherDisplay:10.37,2013-09-01 18:41:00,
2013-09-01 14:46:00,81.7,70.9,29.85,North,0,3.5,3.5,70,0.00,BKN,SKC,0.00,WeatherDisplay:10.37,2013-09-01 18:46:00,
2013-09-01 14:51:00,81.7,70.5,29.85,NE,45,3.5,3.5,69,0.00,BKN,SKC,0.00,WeatherDisplay:10.37,2013-09-01 18:51:00,
2013-09-01 14:56:00,81.7,70.5,29.85,East,90,1.2,1.2,69,0.00,BKN,SKC,0.00,WeatherDisplay:10.37,2013-09-01 18:56:00,
2013-09-01 15:01:00,81.5,70.8,29.85,North,0,1.2,0.0,70,0.00,BKN,SKC,0.00,WeatherDisplay:10.37,2013-09-01 19:01:00,
2013-09-01 15:06:00,81.5,70.3,29.85,NW,315,3.5,3.5,69,0.00,BKN,SKC,0.00,WeatherDisplay:10.37,2013-09-01 19:06:00,
2013-09-01 15:11:00,81.9,69.8,29.84,NW,315,3.5,3.5,67,0.00,BKN,SKC,0.00,WeatherDisplay:10.37,2013-09-01 19:11:00,
2013-09-01 15:16:00,82.8,70.7,29.85,NW,315,1.2,0.0,67,0.00,BKN,SKC,0.00,WeatherDisplay:10.37,2013-09-01 19:16:00,
2013-09-01 15:21:00,84.0,71.9,29.85,North,0,1.6,0.0,67,0.00,BKN,SKC,0.00,WeatherDisplay:10.37,2013-09-01 19:21:00,
2013-09-01 15:26:00,82.8,69.8,29.84,NE,45,1.2,0.0,65,0.00,BKN,SKC,0.00,WeatherDisplay:10.37,2013-09-01 19:26:00,
2013-09-01 15:31:00,82.0,69.6,29.84,NE,45,0.0,0.0,66,0.00,BKN,SKC,0.00,WeatherDisplay:10.37,2013-09-01 19:31:00,
2013-09-01 15:36:00,81.7,70.1,29.84,NE,45,0.0,0.0,68,0.02,RA,SKC,0.02,WeatherDisplay:10.37,2013-09-01 19:36:00,
2013-09-01 15:41:00,80.2,71.2,29.84,North,0,1.2,0.0,74,0.02,RA,SKC,0.02,WeatherDisplay:10.37,2013-09-01 19:41:00,
2013-09-01 15:46:00,79.9,71.6,29.84,North,0,1.2,0.0,76,0.02,BKN,SKC,0.02,WeatherDisplay:10.37,2013-09-01 19:46:00,
2013-09-01 15:51:00,79.7,72.2,29.84,North,0,1.2,0.0,78,0.02,BKN,SKC,0.02,WeatherDisplay:10.37,2013-09-01 19:51:00,
2013-09-01 15:56:00,79.2,72.5,29.84,North,0,4.6,4.6,80,0.02,BKN,SKC,0.02,WeatherDisplay:10.37,2013-09-01 19:56:00,
2013-09-01 16:01:00,79.2,72.8,29.84,NE,45,1.2,0.0,81,0.02,BKN,SKC,0.02,WeatherDisplay:10.37,2013-09-01 20:01:00,
2013-09-01 16:06:00,79.3,73.4,29.84,NW,315,1.2,0.0,82,0.02,BKN,SKC,0.02,WeatherDisplay:10.37,2013-09-01 20:06:00,
2013-09-01 16:11:00,79.2,72.8,29.83,North,0,3.5,3.5,81,0.02,-RA,SKC,0.02,WeatherDisplay:10.37,2013-09-01 20:11:00,
2013-09-01 16:16:00,79.2,72.5,29.83,North,0,1.2,1.2,80,0.02,-RA,SKC,0.02,WeatherDisplay:10.37,2013-09-01 20:16:00,
2013-09-01 16:21:00,79.2,72.1,29.83,North,0,3.5,3.5,79,0.02,-RA,SKC,0.02,WeatherDisplay:10.37,2013-09-01 20:21:00,
2013-09-01 16:26:00,79.2,71.7,29.83,NW,315,2.3,2.3,78,0.02,-RA,SKC,0.02,WeatherDisplay:10.37,2013-09-01 20:26:00,
2013-09-01 16:31:00,79.2,71.7,29.83,NW,315,3.5,3.5,78,0.02,BKN,SKC,0.02,WeatherDisplay:10.37,2013-09-01 20:31:00,
2013-09-01 16:36:00,79.3,72.6,29.83,NE,45,1.2,0.0,80,0.00,BKN,SKC,0.02,WeatherDisplay:10.37,2013-09-01 20:36:00,
2013-09-01 16:41:00,79.7,73.0,29.83,North,0,2.3,2.3,80,0.00,BKN,SKC,0.02,WeatherDisplay:10.37,2013-09-01 20:41:00,
2013-09-01 16:46:00,79.7,72.6,29.83,North,0,1.2,0.0,79,0.00,BKN,SKC,0.02,WeatherDisplay:10.37,2013-09-01 20:46:00,
2013-09-01 16:51:00,79.7,71.8,29.83,North,0,1.6,1.6,77,0.00,BKN,SKC,0.02,WeatherDisplay:10.37,2013-09-01 20:51:00,
2013-09-01 16:56:00,79.5,71.3,29.83,North,0,3.5,3.5,76,0.00,BKN,SKC,0.02,WeatherDisplay:10.37,2013-09-01 20:56:00,
2013-09-01 17:01:00,79.5,71.7,29.83,North,0,0.0,0.0,77,0.00,BKN,SKC,0.02,WeatherDisplay:10.37,2013-09-01 21:01:00,
2013-09-01 17:06:00,79.7,71.8,29.83,North,0,1.2,0.0,77,0.00,BKN,SKC,0.02,WeatherDisplay:10.37,2013-09-01 21:06:00,
2013-09-01 17:11:00,79.7,71.5,29.83,North,0,0.0,0.0,76,0.00,BKN,SKC,0.02,WeatherDisplay:10.37,2013-09-01 21:11:00,
2013-09-01 17:16:00,79.5,71.3,29.83,East,90,0.0,0.0,76,0.00,BKN,SKC,0.02,WeatherDisplay:10.37,2013-09-01 21:16:00,
2013-09-01 17:21:00,79.3,71.5,29.83,NE,45,0.0,0.0,77,0.00,BKN,SKC,0.02,WeatherDisplay:10.37,2013-09-01 21:21:00,
2013-09-01 17:26:00,79.2,72.1,29.83,North,0,0.0,0.0,79,0.00,BKN,SKC,0.02,WeatherDisplay:10.37,2013-09-01 21:26:00,
2013-09-01 17:31:00,79.0,72.3,29.83,NE,45,0.0,0.0,80,0.00,BKN,SKC,0.02,WeatherDisplay:10.37,2013-09-01 21:31:00,
2013-09-01 17:36:00,78.8,72.1,29.83,NE,45,0.0,0.0,80,0.00,BKN,SKC,0.02,WeatherDisplay:10.37,2013-09-01 21:36:00,
2013-09-01 17:41:00,78.6,72.7,29.83,NE,45,0.0,0.0,82,0.00,BKN,SKC,0.02,WeatherDisplay:10.37,2013-09-01 21:41:00,
2013-09-01 17:46:00,78.3,72.7,29.83,East,90,0.0,0.0,83,0.01,RA,SKC,0.04,WeatherDisplay:10.37,2013-09-01 21:46:00,
2013-09-01 17:51:00,77.5,72.0,29.83,WNW,292,0.0,0.0,83,0.01,RA,SKC,0.04,WeatherDisplay:10.37,2013-09-01 21:51:00,
2013-09-01 17:56:00,77.2,72.0,29.83,WNW,292,0.0,0.0,84,0.01,BKN,SKC,0.04,WeatherDisplay:10.37,2013-09-01 21:56:00,
2013-09-01 18:01:00,77.0,72.1,29.83,NE,45,0.0,0.0,85,0.02,RA,SKC,0.05,WeatherDisplay:10.37,2013-09-01 22:01:00,
2013-09-01 18:06:00,76.6,72.5,29.84,SW,225,0.0,0.0,87,0.02,RA,SKC,0.05,WeatherDisplay:10.37,2013-09-01 22:06:00,
2013-09-01 18:11:00,76.3,72.1,29.84,NW,315,1.2,1.2,87,0.02,-RA,SKC,0.05,WeatherDisplay:10.37,2013-09-01 22:11:00,
2013-09-01 18:16:00,76.1,72.3,29.84,North,0,2.3,0.0,88,0.02,-RA,SKC,0.05,WeatherDisplay:10.37,2013-09-01 22:16:00,
2013-09-01 18:21:00,75.9,72.1,29.84,SW,225,0.0,0.0,88,0.02,-RA,SKC,0.05,WeatherDisplay:10.37,2013-09-01 22:21:00,
2013-09-01 18:26:00,75.4,71.6,29.85,SW,225,0.0,0.0,88,0.02,-RA,SKC,0.05,WeatherDisplay:10.37,2013-09-01 22:26:00,
2013-09-01 18:31:00,75.2,71.1,29.85,SW,225,0.0,0.0,87,0.02,-RA,SKC,0.05,WeatherDisplay:10.37,2013-09-01 22:31:00,
2013-09-01 18:36:00,74.8,71.0,29.85,SW,225,0.0,0.0,88,0.02,-RA,SKC,0.05,WeatherDisplay:10.37,2013-09-01 22:36:00,
2013-09-01 18:41:00,74.7,70.9,29.85,SW,225,0.0,0.0,88,0.02,OVC,SKC,0.05,WeatherDisplay:10.37,2013-09-01 22:41:00,
2013-09-01 18:46:00,74.5,71.0,29.85,East,90,0.0,0.0,89,0.01,OVC,SKC,0.05,WeatherDisplay:10.37,2013-09-01 22:46:00,
2013-09-01 18:51:00,74.5,71.0,29.85,East,90,0.0,0.0,89,0.01,OVC,SKC,0.05,WeatherDisplay:10.37,2013-09-01 22:51:00,
2013-09-01 18:56:00,74.3,70.8,29.85,East,90,0.0,0.7,89,0.01,OVC,SKC,0.05,WeatherDisplay:10.37,2013-09-01 22:56:00,
2013-09-01 19:01:00,74.1,70.7,29.85,North,0,1.2,0.0,89,0.00,OVC,SKC,0.05,WeatherDisplay:10.37,2013-09-01 23:01:00,
2013-09-01 19:06:00,73.9,70.5,29.84,North,0,0.0,0.0,89,0.00,OVC,SKC,0.05,WeatherDisplay:10.37,2013-09-01 23:06:00,
2013-09-01 19:11:00,73.8,70.6,29.84,North,0,1.2,0.0,90,0.01,-RA,SKC,0.06,WeatherDisplay:10.37,2013-09-01 23:11:00,
2013-09-01 19:16:00,73.8,70.6,29.83,NE,45,0.0,0.0,90,0.01,-RA,SKC,0.06,WeatherDisplay:10.37,2013-09-01 23:16:00,
2013-09-01 19:21:00,73.6,70.5,29.83,NE,45,0.0,0.0,90,0.01,-RA,SKC,0.06,WeatherDisplay:10.37,2013-09-01 23:21:00,
2013-09-01 19:26:00,73.4,70.3,29.83,SW,225,1.2,1.2,90,0.01,-RA,SKC,0.06,WeatherDisplay:10.37,2013-09-01 23:26:00,
2013-09-01 19:31:00,73.6,71.1,29.83,South,180,2.3,2.3,92,0.01,-RA,SKC,0.06,WeatherDisplay:10.37,2013-09-01 23:31:00,
2013-09-01 19:36:00,73.4,71.3,29.83,SW,225,1.2,1.2,93,0.01,-RA,SKC,0.06,WeatherDisplay:10.37,2013-09-01 23:36:00,
2013-09-01 19:42:00,73.4,71.3,29.84,SW,225,1.2,0.0,93,0.01,-RA,SKC,0.06,WeatherDisplay:10.37,2013-09-01 23:42:00,
2013-09-01 19:47:00,73.2,70.8,29.84,SW,225,0.0,0.0,92,0.01,-RA,SKC,0.06,WeatherDisplay:10.37,2013-09-01 23:47:00,
2013-09-01 19:52:00,73.0,70.6,29.84,South,180,1.2,0.0,92,0.01,-RA,SKC,0.06,WeatherDisplay:10.37,2013-09-01 23:52:00,
2013-09-01 19:57:00,72.9,70.4,29.85,SW,225,2.2,2.2,92,0.01,-RA,SKC,0.06,WeatherDisplay:10.37,2013-09-01 23:57:00,
2013-09-01 20:02:00,72.9,70.4,29.85,SW,225,1.2,0.0,92,0.01,-RA,SKC,0.06,WeatherDisplay:10.37,2013-09-02 00:02:00,
2013-09-01 20:07:00,72.9,70.4,29.85,NW,315,2.3,0.0,92,0.01,-RA,SKC,0.06,WeatherDisplay:10.37,2013-09-02 00:07:00,
2013-09-01 20:12:00,72.9,70.4,29.85,SW,225,0.0,0.0,92,0.00,BKN,SKC,0.06,WeatherDisplay:10.37,2013-09-02 00:12:00,
2013-09-01 20:17:00,72.7,70.5,29.85,NW,315,4.6,4.6,93,0.15,RA,SKC,0.22,WeatherDisplay:10.37,2013-09-02 00:17:00,
2013-09-01 20:22:00,72.3,70.2,29.85,North,0,0.0,0.0,93,0.19,RA,SKC,0.25,WeatherDisplay:10.37,2013-09-02 00:22:00,
2013-09-01 20:27:00,72.0,69.8,29.84,SW,225,0.0,0.0,93,0.20,RA,SKC,0.26,WeatherDisplay:10.37,2013-09-02 00:27:00,
2013-09-01 20:32:00,71.8,69.6,29.85,SW,225,1.2,0.0,93,0.21,RA,SKC,0.27,WeatherDisplay:10.37,2013-09-02 00:32:00,
2013-09-01 20:37:00,71.6,69.8,29.84,NE,45,0.0,0.0,94,0.21,RA,SKC,0.27,WeatherDisplay:10.37,2013-09-02 00:37:00,
2013-09-01 20:42:00,71.4,69.9,29.84,NE,45,0.0,0.0,95,0.21,BKN,SKC,0.27,WeatherDisplay:10.37,2013-09-02 00:42:00,
2013-09-01 20:47:00,71.4,69.9,29.84,SE,135,0.0,0.0,95,0.21,BKN,SKC,0.27,WeatherDisplay:10.37,2013-09-02 00:47:00,
2013-09-01 20:52:00,71.4,69.9,29.84,NE,45,0.0,0.0,95,0.21,BKN,SKC,0.27,WeatherDisplay:10.37,2013-09-02 00:52:00,
2013-09-01 20:57:00,71.2,69.7,29.85,South,180,1.2,0.0,95,0.21,BKN,SKC,0.27,WeatherDisplay:10.37,2013-09-02 00:57:00,
2013-09-01 21:02:00,71.4,70.2,29.85,SW,225,1.2,1.2,96,0.21,BKN,SKC,0.27,WeatherDisplay:10.37,2013-09-02 01:02:00,
2013-09-01 21:07:00,71.4,70.2,29.85,South,180,0.0,0.0,96,0.21,BKN,SKC,0.27,WeatherDisplay:10.37,2013-09-02 01:07:00,
2013-09-01 21:12:00,71.2,70.0,29.85,South,180,0.0,0.0,96,0.21,-RA,SKC,0.27,WeatherDisplay:10.37,2013-09-02 01:12:00,
2013-09-01 21:17:00,71.2,70.0,29.85,South,180,0.0,0.0,96,0.05,-RA,SKC,0.27,WeatherDisplay:10.37,2013-09-02 01:17:00,
2013-09-01 21:22:00,71.1,69.9,29.85,South,180,0.0,0.0,96,0.02,-RA,SKC,0.27,WeatherDisplay:10.37,2013-09-02 01:22:00,
2013-09-01 21:27:00,71.1,69.9,29.85,SW,225,1.2,0.0,96,0.01,-RA,SKC,0.27,WeatherDisplay:10.37,2013-09-02 01:27:00,
2013-09-01 21:32:00,71.2,70.0,29.85,SW,225,0.0,0.0,96,0.00,-RA,SKC,0.27,WeatherDisplay:10.37,2013-09-02 01:32:00,
2013-09-01 21:37:00,71.1,70.2,29.85,SW,225,0.0,0.0,97,0.00,-RA,SKC,0.27,WeatherDisplay:10.37,2013-09-02 01:37:00,
2013-09-01 21:42:00,71.1,70.2,29.85,South,180,0.0,0.0,97,0.00,-RA,SKC,0.27,WeatherDisplay:10.37,2013-09-02 01:42:00,
2013-09-01 21:47:00,71.1,70.2,29.85,South,180,0.0,0.0,97,0.00,-RA,SKC,0.27,WeatherDisplay:10.37,2013-09-02 01:47:00,
2013-09-01 21:52:00,71.1,70.2,29.85,SW,225,0.0,0.0,97,0.00,-RA,SKC,0.27,WeatherDisplay:10.37,2013-09-02 01:52:00,
2013-09-01 21:57:00,70.9,70.0,29.85,SW,225,0.0,0.0,97,0.00,-RA,SKC,0.27,WeatherDisplay:10.37,2013-09-02 01:57:00,
2013-09-01 22:02:00,70.9,70.0,29.85,SW,225,0.0,0.0,97,0.00,-RA,SKC,0.27,WeatherDisplay:10.37,2013-09-02 02:02:00,
2013-09-01 22:07:00,70.9,70.0,29.85,SW,225,0.0,0.0,97,0.00,-RA,SKC,0.27,WeatherDisplay:10.37,2013-09-02 02:07:00,
2013-09-01 22:12:00,70.7,69.8,29.85,SW,225,0.0,0.0,97,0.00,BKN,SKC,0.27,WeatherDisplay:10.37,2013-09-02 02:12:00,
2013-09-01 22:17:00,70.7,69.8,29.85,SW,225,0.0,0.0,97,0.00,BKN,SKC,0.27,WeatherDisplay:10.37,2013-09-02 02:17:00,
2013-09-01 22:22:00,70.5,69.6,29.85,SW,225,0.0,0.0,97,0.00,BKN,SKC,0.27,WeatherDisplay:10.37,2013-09-02 02:22:00,
2013-09-01 22:27:00,70.3,69.4,29.85,SW,225,0.0,0.0,97,0.00,BKN,SKC,0.27,WeatherDisplay:10.37,2013-09-02 02:27:00,
2013-09-01 22:32:00,70.3,69.4,29.85,SW,225,0.0,0.0,97,0.00,BKN,SKC,0.27,WeatherDisplay:10.37,2013-09-02 02:32:00,
2013-09-01 22:37:00,70.2,69.3,29.85,SW,225,0.0,0.0,97,0.00,BKN,SKC,0.27,WeatherDisplay:10.37,2013-09-02 02:37:00,
2013-09-01 22:42:00,70.2,69.3,29.85,SW,225,0.0,0.0,97,0.00,BKN,SKC,0.27,WeatherDisplay:10.37,2013-09-02 02:42:00,
2013-09-01 22:47:00,70.0,69.1,29.85,SW,225,0.0,0.0,97,0.00,BKN,SKC,0.27,WeatherDisplay:10.37,2013-09-02 02:47:00,
2013-09-01 22:52:00,69.8,68.9,29.85,SW,225,0.0,0.0,97,0.00,BKN,SKC,0.27,WeatherDisplay:10.37,2013-09-02 02:52:00,
2013-09-01 22:57:00,69.8,68.9,29.85,SW,225,0.0,0.0,97,0.00,BKN,SKC,0.27,WeatherDisplay:10.37,2013-09-02 02:57:00,
2013-09-01 23:02:00,69.8,68.9,29.85,SW,225,0.0,0.0,97,0.00,BKN,SKC,0.27,WeatherDisplay:10.37,2013-09-02 03:02:00,
2013-09-01 23:07:00,69.8,68.9,29.84,SW,225,0.0,0.0,97,0.00,BKN,SKC,0.27,WeatherDisplay:10.37,2013-09-02 03:07:00,
2013-09-01 23:12:00,70.0,69.1,29.84,South,180,0.0,0.0,97,0.00,SCT,SKC,0.27,WeatherDisplay:10.37,2013-09-02 03:12:00,
2013-09-01 23:17:00,70.0,69.4,29.84,SE,135,0.0,0.0,98,0.00,SCT,SKC,0.27,WeatherDisplay:10.37,2013-09-02 03:17:00,
2013-09-01 23:22:00,70.0,69.4,29.84,South,180,0.0,0.0,98,0.00,SCT,SKC,0.27,WeatherDisplay:10.37,2013-09-02 03:22:00,
2013-09-01 23:27:00,70.0,69.4,29.83,SE,135,0.0,0.0,98,0.00,SCT,SKC,0.27,WeatherDisplay:10.37,2013-09-02 03:27:00,
2013-09-01 23:32:00,70.0,69.4,29.83,SW,225,0.0,0.0,98,0.00,SCT,SKC,0.27,WeatherDisplay:10.37,2013-09-02 03:32:00,
2013-09-01 23:37:00,70.0,69.4,29.83,South,180,0.0,0.0,98,0.00,SCT,SKC,0.27,WeatherDisplay:10.37,2013-09-02 03:37:00,
2013-09-01 23:42:00,70.0,69.4,29.83,SE,135,1.2,1.2,98,0.00,SCT,SKC,0.27,WeatherDisplay:10.37,2013-09-02 03:42:00,
2013-09-01 23:47:00,70.0,69.4,29.83,SE,135,2.3,2.3,98,0.00,SCT,SKC,0.27,WeatherDisplay:10.37,2013-09-02 03:47:00,
2013-09-01 23:52:00,70.2,69.6,29.83,SE,135,1.2,1.2,98,0.00,SCT,SKC,0.27,WeatherDisplay:10.37,2013-09-02 03:52:00,
2013-09-01 23:57:00,70.3,69.7,29.83,South,180,0.0,0.0,98,0.00,SCT,SKC,0.27,WeatherDisplay:10.37,2013-09-02 03:57:00,